Regional Weather Roundup
Issued by NWS

Home | Current Version | Previous Version | Graphics & Text | Print | Product List | Glossary Off
Versions: 1 2 3 4 5 6 7 8 9 10 11 12 13 14 15 16 17 18 19 20 21 22 23 24 25 26 27 28 29 30 31 32 33 34 35 36 37 38 39 40 41 42 43 44 45 46 47 48 49 50

000
ASUS44 KMEG 301800
RWRTN
TENNESSEE HOURLY STATE WEATHER ROUNDUP
NATIONAL WEATHER SERVICE MEMPHIS TN
100 PM CDT WED JUL 30 2014

TNZ002-004-019-021-049-052-054-088>092-301900-
WEST TENNESSEE

CITY           SKY/WX    TMP DP  RH WIND       PRES   REMARKS
MEMPHIS INTL   FAIR      82  56  40 VRB5      30.11F
NWS MEMPHIS      N/A     82 N/A N/A MISG        N/A
JACKSON        FAIR      80  56  43 W6        30.11F
DYERSBURG      FAIR      81  54  39 S3        30.11F
UNION CITY     MOSUNNY   77  55  47 W5        30.10F
PARIS          SUNNY     79  57  47 VRB3      30.12F
SAVANNAH       MOSUNNY   82  57  42 N3        30.11F
$$

TNZ008-025-027-028-033-062-065-066-301900-
NORTH MIDDLE TENNESSEE

CITY           SKY/WX    TMP DP  RH WIND       PRES   REMARKS
NASHVILLE      CLOUDY    80  58  46 NE6       30.11F
CLARKSVILLE    FAIR      80  54  40 MISG      30.11F
COOKEVILLE     MOSUNNY   79  59  50 CALM      30.12S
CROSSVILLE     PTSUNNY   73  52  47 N6        30.15S
$$

TNZ061-075-076-078-094-096-097-301900-
SOUTH MIDDLE TENNESSEE

CITY           SKY/WX    TMP DP  RH WIND       PRES   REMARKS
WINCHESTER     MOSUNNY   77  59  53 VRB7      30.12S
SHELBYVILLE    SUNNY     77  59  53 VRB5      30.12F
$$

TNZ017-018-042-046-047-301900-
NORTHEAST TENNESSEE

CITY           SKY/WX    TMP DP  RH WIND       PRES   REMARKS
TRI CITIES     FAIR      75  52  44 N3        30.13F
ELIZABETHTON   CLEAR     73  55  53 VRB7        N/A
$$

TNZ012-013-036-069-073-074-301900-
CENTRAL EAST TENNESSEE

CITY           SKY/WX    TMP DP  RH WIND       PRES   REMARKS
KNOXVILLE      PTSUNNY   75  56  51 NE9       30.10F
OAK RIDGE      FAIR      77  55  46 E6        30.12F
GATLINBURG     CLEAR     75  52  43 NE6       30.10F
$$

TNZ083-085-099-301900-
SOUTHEAST TENNESSEE

CITY           SKY/WX    TMP DP  RH WIND       PRES   REMARKS
CHATTANOOGA    PTSUNNY   78  55  44 N9        30.10F
$$

SKY/WX REPORTED AS FAIR MEANS FEW OR NO CLOUDS BELOW
12 THOUSAND FEET.



USA.gov is the U.S. government's official web portal to all federal, state and local government web resources and services.